Location: Newark
(52.5694°N, 1.3190°W)
Time: 02:38:22
(UTC+00:00)

N. Korean satellite - Pass Details

Date: 30 January 2020
Orbit: 456 x 505 km, 97.2° (Epoch: 26 February)

Event Time Altitude Azimuth Distance (km) Brightness Sun altitude
Rises 06:40:16 0° 7° (N) 2,552 10.1 -10.8°
Reaches altitude 10° 06:42:24 10° 360° (N) 1,676 9.1 -10.5°
Maximum altitude 06:45:46 39° 291° (WNW) 754 7.0 -10.0°
Drops below altitude 10° 06:49:10 10° 222° (SW) 1,688 9.1 -9.5°
Sets 06:51:20 0° 214° (SW) 2,574 10.1 -9.2°
